EHI
0 0 0 0 0 0 0 0 0 0 0 0 0 0 0 0 0 0 0 0 0 0 0 0 0 0 1 2 2 2 2 2 1 0 0 0 0 0 0 0 0 0 0
0 0 0 0 0 0 0 0 0 0 0 0 0 0 0 0 0 0 0 0 0 0 0 0 0 0 0 1 1 1 1 1 0 0 0 0 0 0 0 0 0 0 0
0 0 0 0 0 0 0 0 0 0 0 0 0 0 0 0 0 0 0 0 0 0 0 0 0 0 0 0 0 0 0 0 0 0 0 0 0 0 0 0 0 0 0
0 0 0 0 0 0 0 0 0 0 0 0 0 0 0 0 0 0 0 0 0 0 0 0 0 0 0 0 0 0 0 0 0 0 0 0 0 0 0 0 0 0 0
0 0 0 0 0 0 0 0 0 0 0 0 0 0 0 0 0 0 0 0 0 0 0 0 0 0 0 0 0 0 0 0 0 0 0 0 0 0 0 0 0 0 0
0 0 0 0 0 0 0 0 0 0 0 0 0 0 0 0 0 0 0 0 0 0 0 0 0 0 0 0 0 0 0 0 0 0 0 0 0 0 0 0 0 0 0
0 0 0 0 0 0 0 0 0 0 0 0 0 0 0 0 0 0 0 0 0 0 0 0 0 0 0 0 0 0 0 0 0 0 0 0 0 0 0 0 0 0 0
0 0 0 0 0 0 0 0 0 0 0 0 0 0 0 0 0 0 0 0 0 0 0 0 0 0 0 0 0 0 0 0 0 0 0 0 0 0 0 0 0 0 0
0 0 0 0 0 0 0 0 0 0 0 0 0 0 0 0 0 0 0 0 0 0 0 0 0 0 0 0 0 0 0 0 0 0 0 0 0 0 0 0 0 0 0
0 0 0 0 0 0 0 0 0 0 0 0 0 0 0 0 0 0 0 0 0 0 0 0 0 0 0 0 0 0 0 0 0 0 0 0 0 0 0 0 0 0 0
0 0 0 0 0 0 0 0 0 0 0 0 0 0 0 0 0 0 0 0 0 0 0 0 0 0 0 0 0 0 0 0 0 0 0 0 0 0 0 0 0 0 0
0 0 0 0 0 0 0 0 0 0 0 0 0 0 0 0 0 0 0 0 0 0 0 0 0 0 0 0 0 0 0 0 0 0 0 0 0 0 0 0 0 0 0
0 0 0 0 0 0 0 0 0 0 0 0 0 0 0 0 0 0 0 0 0 0 0 0 0 0 0 0 0 0 0 0 0 0 0 0 0 0 0 0 0 0 0
0 0 0 0 0 0 0 0 0 0 0 0 0 0 0 0 0 0 0 0 0 0 0 0 0 0 0 0 0 0 0 0 0 0 0 0 0 0 0 0 0 0 0
0 0 0 0 0 0 0 0 0 0 0 0 0 0 0 0 0 0 0 0 0 0 0 0 0 0 0 0 0 0 0 0 0 0 0 0 0 0 0 0 0 0 0
0 0 0 0 0 0 0 0 0 0 0 0 0 0 0 0 0 0 0 0 0 0 0 0 0 0 0 0 0 0 0 0 0 0 0 0 0 0 0 0 0 0 0
0 0 0 0 0 0 0 0 0 0 0 0 0 0 0 0 0 0 0 0 0 0 0 0 0 0 0 0 0 0 0 0 0 0 0 0 0 0 0 0 0 0 0
0 0 0 0 0 0 0 0 0 0 0 0 0 0 0 0 0 0 0 0 0 0 0 0 0 0 0 0 0 0 0 0 0 0 0 0 0 0 0 0 0 0 0
0 0 0 0 0 0 0 0 0 0 0 0 0 0 0 0 0 0 0 0 0 0 0 0 0 0 0 0 0 0 0 0 0 0 0 0 0 0 0 0 0 0 0
0 0 0 0 0 0 0 0 0 0 0 0 0 0 0 0 0 0 0 0 0 0 0 0 0 0 0 0 0 0 0 0 0 0 0 0 0 0 0 0 0 0 0
0 0 0 0 0 0 0 0 0 0 0 0 0 0 0 0 0 0 0 0 0 0 0 0 0 0 0 0 0 0 0 0 0 0 0 0 0 0 0 0 0 0 0
0 0 0 0 0 0 0 0 0 0 0 0 0 0 0 0 0 0 0 0 0 0 0 0 0 0 0 0 0 0 0 0 0 0 0 0 0 0 0 0 0 0 0
0 0 0 0 0 0 0 0 0 0 0 0 0 0 0 0 0 0 0 0 0 0 0 0 0 0 0 0 0 0 0 0 0 0 0 0 0 0 0 0 0 0 0
0 0 0 0 0 0 0 0 0 0 0 0 0 0 0 0 0 0 0 0 0 0 0 0 0 0 0 0 0 0 0 0 0 0 0 0 0 0 0 0 0 0 0
0 0 0 0 0 0 0 0 0 0 0 0 0 0 0 0 0 0 0 0 0 0 0 0 0 0 0 0 0 0 0 0 0 0 0 0 0 0 0 0 0 0 0
0 0 0 0 0 0 0 0 0 0 0 0 0 0 0 0 0 0 0 0 0 0 0 0 0 0 0 0 0 0 0 0 0 0 0 0 0 0 0 0 0 0 0
Wind_Speed
4 4 3 2 2 1 1 2 2 2 2 2 3 3 3 3 3 3 3 3 4 4 3 4 4 4 3 3 3 3 3 3 4 3 3 3 4 4 2 2 2 2 2
4 4 3 3 2 1 1 1 1 1 2 2 3 3 3 3 4 4 4 4 4 4 5 5 5 3 4 3 3 3 3 4 4 5 4 3 4 4 3 3 2 1 1
5 4 3 3 2 1 1 1 1 1 1 2 2 3 3 4 4 4 4 4 4 5 5 5 5 5 5 3 4 4 3 3 4 4 4 3 3 3 3 3 3 2 2
5 4 3 2 2 1 1 1 1 1 2 2 3 3 3 4 4 4 4 5 5 4 4 5 5 5 5 5 4 4 4 4 4 3 3 3 3 3 3 2 2 2 2
5 4 3 3 2 1 1 1 1 2 2 2 2 3 4 3 5 6 5 4 5 4 4 4 4 5 6 5 5 5 4 4 3 3 3 3 2 2 3 3 3 3 3
5 4 3 3 3 2 1 1 2 1 2 2 2 3 3 4 6 6 7 4 4 4 4 4 3 3 3 2 3 4 5 5 5 4 3 4 4 3 3 3 3 3 3
5 5 4 3 3 2 2 2 1 1 2 2 2 3 3 4 5 6 6 5 4 4 5 4 4 3 5 4 2 4 3 3 4 6 5 5 5 4 4 5 4 4 4
5 5 4 3 3 2 2 1 0 0 1 1 2 2 2 3 5 5 7 5 4 4 4 5 5 5 5 6 5 4 4 3 3 5 5 5 5 5 5 5 5 5 5
5 5 4 4 3 2 2 1 1 0 0 1 1 1 2 2 4 5 8 4 3 4 4 5 5 5 6 7 6 5 4 3 1 2 4 4 4 4 5 4 4 4 4
6 5 4 4 3 3 2 1 0 0 1 1 1 2 2 3 4 5 8 4 4 4 3 3 3 5 6 7 6 5 5 5 4 3 3 3 4 3 3 5 4 4 4
6 5 5 4 3 3 2 1 1 1 1 2 1 2 2 3 2 3 7 5 5 5 4 3 3 4 6 6 7 6 6 7 6 5 3 3 3 3 3 3 4 4 5
6 5 5 4 3 3 2 2 1 1 2 2 2 2 2 2 2 3 5 6 8 6 5 4 3 4 5 7 6 5 7 7 5 4 3 3 3 3 3 3 4 4 4
6 5 5 4 3 3 3 2 2 2 2 2 2 3 2 2 1 2 4 5 6 6 5 5 6 7 7 5 4 6 6 5 4 4 4 3 3 4 3 3 4 4 4
6 5 5 4 3 3 2 2 2 2 3 3 3 3 3 3 3 3 3 3 4 5 5 4 6 7 6 6 5 4 4 4 4 4 4 4 3 3 3 3 4 3 3
6 5 4 3 3 2 2 2 3 2 2 4 4 4 4 4 3 6 6 5 5 6 7 6 5 5 4 4 4 3 3 3 4 4 4 4 4 4 4 4 4 3 4
5 5 3 3 3 2 2 2 1 3 2 3 5 6 4 4 5 6 7 8 8 8 7 6 5 5 5 5 5 4 4 4 4 4 4 4 4 4 4 4 4 4 4
5 4 3 3 3 3 3 3 3 3 5 5 6 6 7 6 6 7 7 7 8 8 6 6 6 5 5 5 5 5 5 4 4 4 4 4 4 5 4 4 4 4 5
5 4 3 3 3 3 3 4 4 4 4 3 4 5 6 7 7 7 7 7 6 5 6 6 6 6 6 6 5 5 5 5 5 5 5 4 5 5 4 5 4 5 5
5 4 3 3 3 3 3 4 4 5 5 5 4 3 4 6 7 8 7 6 6 6 6 6 6 6 6 6 6 6 6 5 6 6 5 5 5 5 5 5 5 5 6
4 3 4 3 4 4 4 4 4 5 5 5 5 4 3 4 5 5 5 6 6 6 7 7 7 7 7 7 6 6 6 6 7 6 6 5 5 5 6 6 6 6 5
4 4 6 5 4 4 4 5 5 5 5 5 5 4 5 6 6 7 6 6 7 7 7 7 7 7 7 6 7 8 9 7 7 6 6 6 6 6 6 6 6 6 5
4 4 4 4 4 4 4 5 5 5 6 7 6 5 6 7 7 7 7 7 7 7 7 7 7 6 6 7 7 7 8 8 7 7 7 6 6 6 6 6 6 6 6
5 5 4 4 4 4 5 5 5 6 6 7 7 6 6 7 7 8 8 8 7 8 7 7 8 7 7 7 7 7 8 8 7 7 7 7 7 7 7 7 8 8 7
5 5 5 5 5 5 6 6 6 6 7 7 7 7 7 7 8 9 9 8 8 8 8 8 8 10 12 9 8 8 8 8 8 7 10 9 8 8 8 8 8 9 8
6 6 6 6 6 6 6 6 7 7 7 8 8 8 8 8 9 9 8 8 9 9 10 10 8 9 12 13 12 10 8 8 9 8 8 8 9 9 9 9 8 8 8
6 7 6 6 6 6 7 7 7 8 8 8 8 8 8 9 9 9 9 8 9 9 9 9 11 13 13 12 13 12 10 10 10 11 9 8 9 9 9 8 10 9 9
Wind_Direction
160 151 146 139 126 110 67 45 33 27 18 5 4 358 357 353 353 353 350 353 344 346 341 338 334 335 323 321 309 299 297 293 290 302 311 318 318 315 328 309 285 258 169
160 159 149 148 147 151 86 48 34 31 18 11 6 357 358 352 347 344 342 339 337 340 340 334 332 330 320 322 316 307 299 293 291 299 305 317 318 317 320 308 291 277 267
158 158 156 161 157 155 111 55 7 9 20 18 6 1 355 351 347 341 337 334 335 335 333 332 333 334 329 331 318 312 302 294 287 282 297 314 306 316 316 308 297 304 285
161 158 156 154 156 168 138 95 8 357 356 6 3 0 357 353 348 344 337 333 333 335 333 333 339 339 336 330 321 318 309 299 292 285 288 296 305 313 302 303 301 295 282
162 161 156 148 143 145 125 99 51 14 355 3 1 4 7 1 6 348 336 335 335 335 337 336 350 353 351 340 332 324 316 303 296 292 291 293 302 304 304 303 295 291 276
162 154 145 152 139 135 130 98 72 44 14 16 12 16 16 23 19 355 329 328 330 333 334 332 336 337 330 302 330 326 323 312 308 300 295 300 310 312 309 291 289 285 283
160 149 154 152 143 149 142 113 96 73 34 9 12 14 12 34 18 359 335 316 322 330 330 330 331 341 327 326 293 256 269 283 295 296 297 305 307 313 308 294 288 285 287
159 153 150 151 146 147 146 128 147 59 43 352 2 7 7 29 19 353 324 305 323 326 325 325 325 337 354 334 321 318 318 314 300 288 295 301 311 318 303 295 292 285 281
161 160 155 153 150 149 152 172 221 273 357 310 355 348 337 23 30 349 322 323 323 328 336 339 333 335 3 332 312 315 315 311 261 260 300 303 313 306 296 284 277 269 275
164 164 154 154 157 162 164 181 195 244 267 280 301 305 328 348 38 352 325 322 328 328 330 328 -0 343 346 330 312 312 310 315 313 295 271 264 275 280 264 271 278 270 270
158 156 152 158 166 166 164 179 198 230 264 281 292 302 315 336 3 349 330 323 332 325 321 318 346 1 335 324 309 311 319 312 301 296 294 297 295 298 295 291 290 280 277
152 155 158 162 166 167 171 190 212 229 246 262 276 290 296 303 332 341 326 319 320 317 315 318 341 343 321 310 302 314 307 293 286 289 293 297 301 303 304 304 301 294 287
156 160 164 166 168 179 190 200 218 234 258 273 279 284 291 306 305 278 290 300 302 301 311 329 321 305 289 277 275 288 286 281 287 289 291 296 301 301 302 298 294 292 293
165 169 170 177 180 184 206 228 239 249 259 271 280 286 292 292 302 313 307 295 281 278 288 290 271 267 265 277 277 266 273 290 292 286 289 288 285 280 277 280 280 279 281
172 177 179 184 192 204 207 245 258 262 294 284 287 292 294 293 335 335 314 311 314 314 308 291 285 283 281 279 280 281 279 274 270 275 277 281 281 280 281 278 271 270 270
178 182 185 188 194 211 220 214 225 256 268 265 280 289 290 303 312 304 300 302 303 300 291 281 283 284 286 288 287 284 283 286 280 275 274 274 275 278 276 274 270 264 265
183 183 188 200 203 218 232 244 243 222 220 232 245 260 274 291 292 289 290 290 282 276 276 281 283 287 288 287 286 284 283 283 284 276 271 270 271 270 267 266 265 267 269
187 183 194 204 219 230 239 248 256 264 262 252 230 229 247 262 270 272 274 277 272 262 274 280 282 283 284 283 282 281 281 279 274 272 269 269 268 267 267 264 261 263 267
191 191 200 214 227 237 245 252 259 265 269 273 273 244 232 252 253 251 251 266 277 278 278 280 279 279 279 278 278 278 277 276 276 275 271 267 263 264 265 264 263 263 262
195 191 214 222 228 237 246 254 260 264 268 271 273 279 276 275 277 271 265 274 276 277 277 276 276 276 279 279 276 273 271 268 268 268 269 263 260 258 261 266 265 261 260
197 191 208 230 237 245 252 259 263 266 269 273 275 284 289 280 280 279 278 276 276 278 278 276 275 274 273 274 272 268 269 268 266 266 266 261 258 256 257 258 263 265 261
202 207 215 232 241 249 260 263 265 268 271 274 277 268 248 263 274 276 276 277 277 278 280 278 273 272 271 269 271 271 272 272 269 266 264 263 259 255 255 256 257 261 262
211 217 224 233 243 245 252 259 264 268 271 274 276 278 274 274 276 277 279 280 282 281 280 279 276 274 271 269 268 270 271 270 269 270 267 264 261 256 254 253 254 258 257
215 223 232 239 246 251 254 259 263 267 270 272 273 275 276 277 277 278 280 280 279 278 278 278 276 274 275 274 271 267 268 273 276 271 267 264 263 262 257 254 253 253 254
220 228 236 242 247 251 257 261 264 267 270 271 274 275 277 277 277 278 279 278 278 277 278 278 276 275 274 273 273 272 273 270 268 273 271 262 259 259 257 254 252 253 249
226 233 239 244 249 254 258 263 266 269 270 271 273 275 277 277 278 278 279 278 278 279 278 275 273 274 275 275 275 274 270 262 259 259 261 261 257 254 254 251 251 251 247